TimeCDT,TemperatureF,Dew PointF,Humidity,Sea Level PressureIn,VisibilityMPH,Wind Direction,Wind SpeedMPH,Gust SpeedMPH,PrecipitationIn,Events,Conditions,WindDirDegrees,DateUTC
12:15 AM,44.6,42.8,93,30.09,1.8,ENE,9.2,-,N/A,,Overcast,70,2013-04-17 05:15:00
12:35 AM,44.6,42.8,93,30.08,1.0,East,8.1,-,N/A,,Overcast,80,2013-04-17 05:35:00
12:55 AM,44.6,42.8,93,30.08,0.8,East,8.1,-,N/A,,Overcast,80,2013-04-17 05:55:00
1:15 AM,46.4,42.8,87,30.09,0.5,East,8.1,-,N/A,,Overcast,80,2013-04-17 06:15:00
1:35 AM,46.4,44.6,93,30.08,0.5,East,5.8,-,N/A,,Overcast,80,2013-04-17 06:35:00
1:55 AM,46.4,44.6,93,30.08,0.5,East,6.9,-,N/A,,Overcast,90,2013-04-17 06:55:00
2:15 AM,46.4,44.6,93,30.07,0.5,East,6.9,-,N/A,,Overcast,80,2013-04-17 07:15:00
2:35 AM,46.4,44.6,93,30.07,0.5,East,6.9,-,N/A,,Overcast,90,2013-04-17 07:35:00
2:55 AM,46.4,44.6,93,30.07,0.5,East,8.1,-,N/A,,Overcast,80,2013-04-17 07:55:00
3:15 AM,46.4,44.6,93,30.07,0.5,East,6.9,-,N/A,,Overcast,80,2013-04-17 08:15:00
3:35 AM,46.4,44.6,93,30.06,0.5,East,6.9,-,N/A,,Overcast,90,2013-04-17 08:35:00
3:55 AM,46.4,44.6,93,30.05,0.8,East,8.1,-,N/A,,Overcast,90,2013-04-17 08:55:00
4:15 AM,46.4,44.6,93,30.04,0.8,ESE,8.1,-,N/A,,Overcast,110,2013-04-17 09:15:00
4:35 AM,46.4,44.6,93,30.03,1.0,ESE,6.9,-,N/A,,Overcast,110,2013-04-17 09:35:00
4:55 AM,46.4,44.6,93,30.03,1.2,East,5.8,-,N/A,,Overcast,100,2013-04-17 09:55:00
5:15 AM,46.4,44.6,93,30.02,1.2,ESE,5.8,-,N/A,,Overcast,120,2013-04-17 10:15:00
5:35 AM,46.4,44.6,93,30.01,1.5,ESE,5.8,-,N/A,,Overcast,120,2013-04-17 10:35:00
5:55 AM,46.4,46.4,100,30.00,1.2,ESE,4.6,-,N/A,,Overcast,120,2013-04-17 10:55:00
6:15 AM,48.2,46.4,93,30.00,1.0,SE,5.8,-,N/A,,Overcast,130,2013-04-17 11:15:00
6:35 AM,48.2,46.4,93,29.99,0.5,ESE,4.6,-,N/A,,Overcast,120,2013-04-17 11:35:00
6:55 AM,48.2,46.4,93,30.00,0.2,East,4.6,-,N/A,,Overcast,100,2013-04-17 11:55:00
7:15 AM,48.2,46.4,93,30.00,0.2,Calm,Calm,-,N/A,,Overcast,0,2013-04-17 12:15:00
7:35 AM,50.0,48.2,94,30.01,0.2,ENE,3.5,-,N/A,,Overcast,70,2013-04-17 12:35:00
7:55 AM,51.8,48.2,88,30.00,0.2,East,4.6,-,N/A,,Overcast,100,2013-04-17 12:55:00
8:15 AM,51.8,50.0,94,30.00,0.2,ESE,5.8,-,N/A,,Overcast,110,2013-04-17 13:15:00
8:35 AM,53.6,51.8,94,29.99,0.2,ESE,5.8,-,N/A,,Overcast,110,2013-04-17 13:35:00
9:15 AM,55.4,53.6,94,29.98,0.2,SSE,5.8,-,N/A,,Overcast,150,2013-04-17 14:15:00
9:35 AM,55.4,55.4,100,29.98,0.5,SE,5.8,-,N/A,,Overcast,130,2013-04-17 14:35:00
9:55 AM,57.2,55.4,94,29.96,1.2,SSE,6.9,-,N/A,,Overcast,150,2013-04-17 14:55:00
10:15 AM,60.8,57.2,88,29.95,2.5,SSE,5.8,-,N/A,,Overcast,150,2013-04-17 15:15:00
10:35 AM,62.6,60.8,94,29.94,4.0,SSE,8.1,-,N/A,,Overcast,160,2013-04-17 15:35:00
10:55 AM,66.2,62.6,88,29.93,5.0,South,8.1,-,N/A,,Mostly Cloudy,190,2013-04-17 15:55:00
11:15 AM,69.8,64.4,83,29.93,7.0,South,13.8,18.4,N/A,,Mostly Cloudy,180,2013-04-17 16:15:00
11:35 AM,71.6,64.4,78,29.92,8.0,South,9.2,-,N/A,,Partly Cloudy,180,2013-04-17 16:35:00
11:55 AM,75.2,66.2,73,29.90,10.0,South,11.5,21.9,N/A,,Clear,170,2013-04-17 16:55:00
12:15 PM,78.8,66.2,65,29.90,10.0,SSW,13.8,19.6,N/A,,Mostly Cloudy,200,2013-04-17 17:15:00
12:35 PM,78.8,66.2,65,29.89,10.0,South,16.1,25.3,N/A,,Overcast,190,2013-04-17 17:35:00
12:55 PM,78.8,66.2,65,29.87,10.0,South,16.1,20.7,N/A,,Overcast,190,2013-04-17 17:55:00
1:15 PM,80.6,66.2,61,29.85,10.0,SSW,18.4,25.3,N/A,,Scattered Clouds,200,2013-04-17 18:15:00
1:35 PM,82.4,66.2,58,29.84,10.0,SSW,18.4,28.8,N/A,,Mostly Cloudy,200,2013-04-17 18:35:00
1:55 PM,82.4,64.4,54,29.84,10.0,SSW,13.8,21.9,N/A,,Overcast,200,2013-04-17 18:55:00
2:15 PM,80.6,64.4,58,29.83,10.0,South,11.5,23.0,N/A,,Overcast,190,2013-04-17 19:15:00
2:35 PM,80.6,64.4,58,29.82,10.0,South,12.7,17.3,N/A,,Overcast,180,2013-04-17 19:35:00
2:55 PM,82.4,62.6,51,29.80,10.0,South,16.1,21.9,N/A,,Overcast,170,2013-04-17 19:55:00
3:35 PM,82.4,62.6,51,29.77,10.0,South,16.1,23.0,N/A,,Mostly Cloudy,190,2013-04-17 20:35:00
3:55 PM,80.6,62.6,54,29.77,10.0,South,13.8,20.7,N/A,,Mostly Cloudy,190,2013-04-17 20:55:00
4:15 PM,80.6,62.6,54,29.75,10.0,South,9.2,21.9,N/A,,Overcast,170,2013-04-17 21:15:00
4:35 PM,80.6,62.6,54,29.73,10.0,South,16.1,25.3,N/A,,Mostly Cloudy,170,2013-04-17 21:35:00
4:55 PM,80.6,62.6,54,29.74,10.0,South,11.5,24.2,N/A,,Mostly Cloudy,180,2013-04-17 21:55:00
5:15 PM,80.6,62.6,54,29.74,10.0,South,13.8,20.7,N/A,,Overcast,180,2013-04-17 22:15:00
5:35 PM,80.6,62.6,54,29.72,10.0,South,13.8,21.9,N/A,,Overcast,170,2013-04-17 22:35:00
5:55 PM,80.6,62.6,54,29.71,10.0,South,16.1,26.5,N/A,,Mostly Cloudy,170,2013-04-17 22:55:00
6:15 PM,80.6,62.6,54,29.71,10.0,South,11.5,19.6,N/A,,Mostly Cloudy,180,2013-04-17 23:15:00
6:35 PM,80.6,60.8,51,29.71,10.0,South,11.5,23.0,N/A,,Mostly Cloudy,170,2013-04-17 23:35:00
6:55 PM,80.6,60.8,51,29.71,10.0,South,12.7,23.0,N/A,,Overcast,180,2013-04-17 23:55:00
7:15 PM,80.6,60.8,51,29.70,10.0,South,12.7,21.9,N/A,,Mostly Cloudy,170,2013-04-18 00:15:00
7:35 PM,78.8,60.8,54,29.68,10.0,South,10.4,20.7,N/A,,Partly Cloudy,180,2013-04-18 00:35:00
7:55 PM,78.8,60.8,54,29.68,10.0,South,12.7,19.6,N/A,,Clear,180,2013-04-18 00:55:00
8:15 PM,78.8,60.8,54,29.68,10.0,South,12.7,18.4,N/A,,Clear,180,2013-04-18 01:15:00
8:35 PM,77.0,60.8,57,29.67,10.0,South,11.5,20.7,N/A,,Clear,180,2013-04-18 01:35:00
8:55 PM,77.0,60.8,57,29.68,5.0,South,10.4,18.4,N/A,,Clear,180,2013-04-18 01:55:00
9:15 PM,77.0,60.8,57,29.68,10.0,South,11.5,21.9,N/A,,Partly Cloudy,180,2013-04-18 02:15:00
9:35 PM,77.0,60.8,57,29.68,10.0,South,11.5,18.4,N/A,,Mostly Cloudy,180,2013-04-18 02:35:00
9:55 PM,77.0,60.8,57,29.68,10.0,South,13.8,23.0,N/A,,Overcast,180,2013-04-18 02:55:00
10:15 PM,75.2,62.6,65,29.69,10.0,South,15.0,24.2,N/A,,Mostly Cloudy,180,2013-04-18 03:15:00
10:35 PM,75.2,62.6,65,29.68,10.0,South,15.0,21.9,N/A,,Mostly Cloudy,180,2013-04-18 03:35:00
10:55 PM,75.2,62.6,65,29.68,10.0,South,11.5,16.1,N/A,,Overcast,180,2013-04-18 03:55:00
11:15 PM,75.2,62.6,65,29.66,10.0,South,13.8,23.0,N/A,,Mostly Cloudy,190,2013-04-18 04:15:00
11:35 PM,75.2,62.6,65,29.66,10.0,South,15.0,24.2,N/A,,Mostly Cloudy,190,2013-04-18 04:35:00
11:55 PM,75.2,62.6,65,29.66,10.0,South,15.0,20.7,N/A,,Mostly Cloudy,190,2013-04-18 04:55:00